Location: Bailleul
(50.3375°N, 2.8513°E)
Time: 02:15:59
(UTC+00:00)

Cosmos 2016 Rocket - Pass Details

Date: 01 November 2021
Orbit: 947 x 1000 km, 83.0° (Epoch: 06 December)

Event Time Altitude Azimuth Distance (km) Brightness Sun altitude
Rises 03:40:40 0° 360° (N) 3,631 7.1 -28.8°
Reaches altitude 10° 03:44:43 10° 26° (NNE) 2,683 6.7 -28.2°
Maximum altitude 03:47:39 14° 55° (NE) 2,427 6.8 -27.7°
Drops below altitude 10° 03:50:35 10° 84° (E) 2,685 7.3 -27.2°
Sets 03:54:37 0° 110° (ESE) 3,635 7.9 -26.6°
